Погода в Ижевске

Погода в Ижевске : погода сейчас, прогноз погоды и архив. Всё, что Вы хотите узнать о погоде в Ижевске!

Хотите узнать прогноз погоды в Ижевске? Тогда Вам сюда: Погода в Ижевске

Поиск расширенной информации на нашем сайте:

Другие новости

Новости СМИ2

Главная страница сайта

Новости сайта

02.10.2013

Напоминаем, что на нашем новом сайте вы можете получить высокодетализированные прогнозы погоды по пунктам России, СНГ и мира (включающие важные для авиации метеовеличины, такие как направление и скорость ветра, видимость, явления погоды, количество и форма облачности, нижняя и верхняя граница облачности), а также ознакомиться с разнообразными материалами по авиационной метеорологии и подборкой полезных ссылок на эту тему.

Сайт Метеоцентр.Азия посвящён разработке технологий оптимизации авиаметеорологического обслуживания, включая проектирование и перспективное создание нескольких автоматизированных авиаметеорологических систем:
- система выпуска высокодетальных прогностических карт явлений погоды для нижнего воздушного пространства по России и ближнему зарубежью;
- система верификации прогнозов TAF (выпускаемых синоптиками официальных АМСГ РФ и ближнего зарубежья) и AUTOTAF (выпускаемых сайтом Метеоцентр.Азия) - выявление ошибок, онлайн-сопоставление с фактической погодой METAR, автоматическое внесение коррективов в прогнозы при резком отклонении фактической погоды от прогноза, подсчёт оправдываемости прогнозов по элементам и в целом;
- система обработки, анализа и отображения авиаметеорологической информации для применения провайдерами метеорологической информации.

Рекомендуем: биографии мастеров спорта, ашихара.

Погода в Ижевске - сегодня

Время (UTC), дата Ветер
(°,м/с) 
Видим.   Явления Облачность Т
(°С)
Тd
(°С)
f(%) Тe
(°С)
Pmin
(гПа)
dP
(гПа)
Po
(мм)
O2
(г/м3)
Тmin Tmax R s Состояние
почвы
09 22.03.17 160 (Ю) 4-5{06}  10 км    10/0 верхняя 
[Cs]
+2.6 -9.7 40 +1  1027.4  -0.1  755  302           
12 22.03.17 130 (ЮВ) 2-4{06}  10 км    10/0 средняя, верхняя 
[Ac trans|Cs]
+3.5 -8 43 +3  1026.7  -0.6  755  301           
15 22.03.17 150 (ЮВ) 2-2{05}  10 км    10/0 средняя, верхняя 
[Ac trans|Cs]
+0.7 -9.3 47 1026.4  -0.6  755  304    +3.7       
18 22.03.17 120 (ЮВ) 2-2{05}  10 км    10/0 верхняя 
[Cs]
-3 -11.1 54 -4  1026.2  -0.4  754  308           
21 22.03.17 тихо () -1{03}  10 км    10/0 средняя, верхняя 
[Ac trans|Cs]
-2.4 -10.6 53 -2  1026  -0.2  754  308           
00 23.03.17 120 (ЮВ) 3-4{04}  10 км    6/0 верхняя 
[Ci fib]
-4.8 -12.5 55 -7  1025.1  -1.1  753  310           
03 23.03.17 160 (Ю) 2-3{05}  10 км    4/0 верхняя 
[Ci fib]
-6.2 -12.1 63 -8  1025.2  753  312  -7      68  равномерный
мокрый или
старый снег
100% 
06 23.03.17 150 (ЮВ) 2-4{05}  10 км    1/0 верхняя 
[Ci fib]
-1.6 -9.4 55 -3  1024.3  -0.5  753  306           
09 23.03.17 140 (ЮВ) 3-5{07}  10 км    10/4 1000 м средняя 
[Sc|Ac und]
+1.2 -6.7 56 1022.6  -1.4  752  302           
12 23.03.17 130 (ЮВ) 4-6{08}  10 км    10/1 1000 м средняя 
[Sc|Ac und]
+0.4 -4.7 69 -2  1021.1  -1.6  751  303           
15 23.03.17 160 (Ю) 3-5{07}  10 км    10/1 1000 м средняя 
[Sc|Ac und]
+0.1 -4 74 -2  1020.1  -1  750  302    +1.9       
18 23.03.17 160 (Ю) 2-4{06}  10 км    10/5 1000 м средняя 
[Sc|Ac As]
-0.6 -3.7 80 -1  1019.3  -0.8  749  303           
21 23.03.17 180 (Ю) 2-4{06}  4000 м  слаб. снег  10/6 600 м средняя 
[Sc|Ac As]
-0.6 -2.7 86 -1  1017.6  -1.6  748  302           
00 24.03.17 210 (ЮЗ) 2-3{05}  10 км  в посл. час снег  10/8 300 м средняя 
[Sc|Ac As]
-0.8 -2.1 91 -2  1018.4  0.7  749  303           
03 24.03.17 240 (ЮЗ) 2-3{05}  10 км    10/8 600 м средняя 
[Sc|Ac As]
-0.4 -2.5 86 -1  1018.9  0.5  749  303  -1.1    0.1  69  равномерный
мокрый или
старый снег
100% 
06 24.03.17 240 (ЮЗ) 3-4{05}  10 км    10/10 300 м 
[Sc]
+0.7 -1.6 85 -1  1019.2  0.4  749  301           
09 24.03.17 210 (ЮЗ) 4-5{06}  10 км    10/10 300 м 
[Sc]
+2.4 -0.9 79 1018.9  -0.2  749  299           
12 24.03.17 180 (Ю) 4-5{06}  10 км    8/0 средняя, верхняя 
[Ac trans|Ci fib]
+3.5 -1.5 70 +2  1017.1  -1.6  748  298           
15 24.03.17 200 (Ю) 4-5{07}  10 км    9/4 1000 м средняя 
[Sc|Ac trans]
+2.2 -1.8 75 1016.9  -0.3  748  299    +4       
18 24.03.17 240 (ЮЗ) 3-4{07}  10 км    9/6 600 м средняя 
[Sc|Ac trans]
+1.4 -2.1 77 1017.2  0.2  748  300           
21 24.03.17 180 (Ю) 2-3{05}  10 км    10/0 средняя, верхняя 
[Ac trans|Ci fib]
-0.6 -3.4 81 -1  1016.5  -0.8  747  302           
00 25.03.17 120 (ЮВ) 2-4{05}  10 км    10/0 средняя 
[Ac As]
-2.4 -4 89 -3  1015.4  -1.3  746  304           
03 25.03.17 120 (ЮВ) 4-5{06}  10 км    10/0 средняя 
[Ac As]
-1.9 -2.7 94 -5  1012.7  -2.5  744  302  -2.7      67  равномерный
мокрый или
старый снег
100% 
06 25.03.17 110 (В) 4-5{06}  10 км  слаб. снег  10/6 600 м средняя 
[Sc|Ac As]
-0.2 -2 88 -3  1008.5  -3.9  741  299           
09 25.03.17 120 (ЮВ) 8-10{11}  4000 м  слаб. снег  10/6 300 м средняя 
[Sc|Ac As]
-0.1 -1.6 90 -4  1004.5  -4.1  738  298           
Время (UTC), дата Ветер
(°,м/с) 
Видим.   Явления Облачность Т
(°С)
Тd
(°С)
f(%) Тe
(°С)
Pmin
(гПа)
dP
(гПа)
Po
(мм)
O2
(г/м3)
Тmin Tmax R s Состояние
почвы

Для получения пояснительной информации подведите курсор к названию столбца.

ПОГОДА в Ижевске - архив

Всё, что Вы хотите узнать о погоде в Ижевске - удобно и подробно!

Выберите нужную дату (начиная с 1 января 2015* года) и нажмите кнопку "Найти".
Будут отображены архивные сводки погоды по пункту Ижевск, начиная с указанной даты.


Отображать данные в формате CSV (для использования в таблицах Excel)


Внимание! Наш архив погоды предназначен исключительно для личного некоммерческого использования в познавательных целях. Если Вам необходимы официальные справки о состоянии погоды (для производственных, юридических, коммерческих и т.п. целей), обращайтесь в органы Росгидромета.

*Примечание: данная дата относится к архиву по метеостанциям СССР (Россия, СНГ, Балтия).
Архив по метеостанциям Зарубежной Европы и Азии (кроме Китая) хранится 10 дней, по другим регионам земного шара (Китай, Африка, Америка, Австралия, Океания) - 1 день.

Ижевск - район местоположения метеостанции


Название, широта, долгота, высота метеостанции:
Ижевск 56.8°ш. 53.4°д. 159 м над ур. моря [Российская Федерация]

Дополнительная информация

В oтличие oт бoльшинства пoгoдных сайтoв мы публикуем пoдрoбную метеoинфoрмацию в детальнoм прoфессиoнальнoм фoрмате.

Характеристики температуры и влажнoсти вoздуха измеряются на высoте 2 м в тени вдали oт зданий и деревьев.
Скoрoсть ветра измеряется на высoте 10 м (на урoвне рoста челoвека скoрoсть ветра ниже в 1.5-2 раза). Если метеoстанция нахoдится в гoрoде или в лесу, тo скoрoсть ветра занижена на 2-4 м/с пo сравнению с oткрытым местoм. Скoрoсть ветра над акватoриями крупных рек и oзёр, а также на вершинах хoлмoв на 2-5 м/с выше, чем в oбычных услoвиях.
Атмoсфернoе давление в разных тoчках местнoсти мoжет значительнo oтличаться oт давления на метеoстанции, в зависимoсти oт услoвий рельефа (при пoдъёме на 10 м давление пoнижается примернo на 1 мм рт.ст.).